When you browse on this site, cookies collect data to enhance your experience and personalize the content and advertising you see.
Visit our Privacy Policy to learn more. By continuing to use the site, you agree to this use of cookies and data.
  • In Czech Republic
  • List of Countries
  • For 7 days
  • Water Temperature
  • Weather Map
  • Weather Widgets
  • user-avatar
    Login

    Hourly Weather Malanje

    Today, 29 February, Saturday

    Time Temperature Precipitation Wind Pressure Humidity
    00:00 +21°C° 0 mm 1 mps 665 mmHg 91%
    01:00 +21°C° 0 mm 1 mps 665 mmHg 92%
    02:00 +21°C° 0.1 mm 1 mps 665 mmHg 92%
    03:00 +21°C° 0.1 mm 1 mps 664 mmHg 92%
    04:00 +21°C° 0.1 mm 1 mps 664 mmHg 91%
    05:00 +20°C° 0.2 mm 2 mps 665 mmHg 92%
    06:00 +20°C° 0.2 mm 2 mps 665 mmHg 93%
    07:00 +20°C° 0.2 mm 2 mps 666 mmHg 94%
    08:00 +20°C° 0.3 mm 2 mps 666 mmHg 93%
    09:00 +20°C° 0.3 mm 2 mps 666 mmHg 93%
    10:00 +20°C° 0.3 mm 2 mps 667 mmHg 92%
    11:00 +20°C° 0.1 mm 2 mps 666 mmHg 91%
    12:00 +21°C° 0.1 mm 2 mps 666 mmHg 91%
    13:00 +21°C° 0.1 mm 2 mps 666 mmHg 90%
    14:00 +22°C° 0.1 mm 1 mps 665 mmHg 90%
    15:00 +22°C° 0.1 mm 1 mps 665 mmHg 91%
    16:00 +21°C° 0.1 mm 1 mps 664 mmHg 91%
    17:00 +21°C° 0 mm 1 mps 664 mmHg 89%
    18:00 +19°C° 0 mm 0 mps 665 mmHg 87%
    19:00 +19°C° 0 mm 0 mps 665 mmHg 85%
    20:00 +21°C° 0 mm 1 mps 665 mmHg 84%
    21:00 +21°C° 0 mm 1 mps 666 mmHg 84%
    22:00 +21°C° 0 mm 1 mps 666 mmHg 83%
    23:00 +20°C° 0 mm 2 mps 666 mmHg 83%

    Tomorrow, 1 March, Sunday

    Time Temperature Precipitation Wind Pressure Humidity
    00:00 +20°C° 0 mm 2 mps 666 mmHg 84%
    01:00 +20°C° 0 mm 2 mps 666 mmHg 84%
    02:00 +20°C° 0 mm 2 mps 666 mmHg 87%
    03:00 +20°C° 0 mm 2 mps 665 mmHg 91%
    04:00 +20°C° 0 mm 3 mps 665 mmHg 94%
    05:00 +20°C° 0 mm 2 mps 665 mmHg 94%
    06:00 +20°C° 0 mm 2 mps 666 mmHg 94%
    07:00 +20°C° 0 mm 2 mps 666 mmHg 94%
    08:00 +21°C° 0.1 mm 2 mps 667 mmHg 90%
    09:00 +23°C° 0.1 mm 2 mps 667 mmHg 86%
    10:00 +24°C° 0.1 mm 2 mps 668 mmHg 82%
    11:00 +25°C° 0.6 mm 2 mps 667 mmHg 78%
    12:00 +26°C° 0.6 mm 2 mps 667 mmHg 73%
    13:00 +28°C° 0.6 mm 2 mps 667 mmHg 69%
    14:00 +28°C° 0.1 mm 2 mps 666 mmHg 67%
    15:00 +28°C° 0.1 mm 2 mps 665 mmHg 65%
    16:00 +28°C° 0.1 mm 2 mps 665 mmHg 63%
    17:00 +26°C° 0 mm 2 mps 665 mmHg 70%
    18:00 +24°C° 0 mm 1 mps 665 mmHg 77%
    19:00 +22°C° 0 mm 1 mps 665 mmHg 84%
    20:00 +22°C° 0.1 mm 1 mps 665 mmHg 88%
    21:00 +21°C° 0.1 mm 1 mps 665 mmHg 91%
    22:00 +21°C° 0.1 mm 1 mps 666 mmHg 95%
    23:00 +20°C° 0 mm 1 mps 665 mmHg 95%

    Day after tomorrow, 2 March, Monday

    Time Temperature Precipitation Wind Pressure Humidity
    00:00 +20°C° 0 mm 1 mps 665 mmHg 95%
    01:00 +20°C° 0 mm 1 mps 665 mmHg 95%
    02:00 +19°C° 0 mm 1 mps 665 mmHg 95%
    03:00 +19°C° 0 mm 1 mps 664 mmHg 94%
    04:00 +19°C° 0 mm 1 mps 664 mmHg 94%
    05:00 +19°C° 0 mm 1 mps 664 mmHg 92%
    06:00 +20°C° 0 mm 1 mps 665 mmHg 91%
    07:00 +20°C° 0 mm 1 mps 665 mmHg 89%
    08:00 +21°C° 0 mm 2 mps 666 mmHg 80%
    09:00 +25°C° 0 mm 2 mps 667 mmHg 70%
    10:00 +27°C° 0 mm 3 mps 667 mmHg 61%
    11:00 +28°C° 0 mm 2 mps 667 mmHg 57%
    12:00 +29°C° 0 mm 2 mps 667 mmHg 53%
    13:00 +30°C° 0 mm 1 mps 666 mmHg 49%
    14:00 +30°C° 0 mm 1 mps 666 mmHg 51%
    15:00 +30°C° 0 mm 1 mps 665 mmHg 52%
    16:00 +28°C° 0 mm 0 mps 665 mmHg 53%
    17:00 +28°C° 0 mm 1 mps 665 mmHg 60%
    18:00 +26°C° 0 mm 1 mps 664 mmHg 68%
    19:00 +23°C° 0 mm 1 mps 664 mmHg 75%
    20:00 +23°C° 0.3 mm 1 mps 665 mmHg 81%
    21:00 +22°C° 0.3 mm 1 mps 665 mmHg 86%
    22:00 +21°C° 0.3 mm 1 mps 665 mmHg 92%
    23:00 +21°C° 0 mm 1 mps 665 mmHg 92%

    3 March, Tuesday

    Time Temperature Precipitation Wind Pressure Humidity
    00:00 +20°C° 0 mm 1 mps 665 mmHg 93%
    01:00 +20°C° 0 mm 1 mps 665 mmHg 94%
    02:00 +20°C° 0 mm 1 mps 665 mmHg 95%
    03:00 +19°C° 0 mm 1 mps 665 mmHg 96%
    04:00 +19°C° 0 mm 1 mps 665 mmHg 97%
    05:00 +17°C° 0 mm 0 mps 665 mmHg 97%
    06:00 +18°C° 0 mm 0 mps 666 mmHg 96%
    07:00 +18°C° 0 mm 0 mps 666 mmHg 96%
    08:00 +21°C° 0 mm 0 mps 667 mmHg 86%
    09:00 +25°C° 0 mm 1 mps 668 mmHg 77%
    10:00 +28°C° 0 mm 1 mps 668 mmHg 68%
    11:00 +28°C° 0 mm 1 mps 668 mmHg 63%
    12:00 +29°C° 0 mm 2 mps 667 mmHg 58%
    13:00 +30°C° 0 mm 2 mps 667 mmHg 53%
    14:00 +30°C° 0 mm 2 mps 666 mmHg 55%
    15:00 +29°C° 0 mm 2 mps 665 mmHg 57%
    16:00 +29°C° 0 mm 2 mps 665 mmHg 59%
    17:00 +27°C° 0 mm 2 mps 665 mmHg 66%
    18:00 +25°C° 0 mm 2 mps 665 mmHg 73%
    19:00 +23°C° 0 mm 1 mps 665 mmHg 80%
    20:00 +22°C° 0 mm 1 mps 665 mmHg 84%
    21:00 +21°C° 0 mm 1 mps 665 mmHg 88%
    22:00 +20°C° 0 mm 1 mps 666 mmHg 92%
    23:00 +20°C° 0 mm 1 mps 665 mmHg 93%

    4 March, Wednesday

    Time Temperature Precipitation Wind Pressure Humidity
    00:00 +19°C° 0 mm 1 mps 665 mmHg 93%
    01:00 +19°C° 0 mm 1 mps 665 mmHg 94%
    02:00 +19°C° 0 mm 1 mps 665 mmHg 94%
    03:00 +18°C° 0 mm 1 mps 664 mmHg 95%
    04:00 +18°C° 0 mm 1 mps 664 mmHg 95%
    05:00 +18°C° 0 mm 1 mps 665 mmHg 94%
    06:00 +19°C° 0 mm 1 mps 665 mmHg 92%
    07:00 +19°C° 0 mm 1 mps 666 mmHg 90%
    08:00 +22°C° 0 mm 1 mps 666 mmHg 80%
    09:00 +25°C° 0 mm 1 mps 667 mmHg 70%
    10:00 +27°C° 0 mm 2 mps 667 mmHg 60%
    11:00 +29°C° 0 mm 1 mps 667 mmHg 56%
    12:00 +30°C° 0 mm 1 mps 667 mmHg 52%
    13:00 +31°C° 0 mm 1 mps 666 mmHg 48%
    14:00 +31°C° 0 mm 1 mps 666 mmHg 50%
    15:00 +30°C° 0 mm 2 mps 665 mmHg 52%
    16:00 +30°C° 0 mm 2 mps 664 mmHg 54%
    17:00 +27°C° 0 mm 2 mps 664 mmHg 62%
    18:00 +25°C° 0 mm 2 mps 664 mmHg 70%
    19:00 +23°C° 0 mm 2 mps 664 mmHg 78%
    20:00 +21°C° 0 mm 2 mps 664 mmHg 78%
    21:00 +21°C° 0 mm 1 mps 665 mmHg 79%
    22:00 +20°C° 0 mm 1 mps 665 mmHg 79%
    23:00 +20°C° 0 mm 1 mps 665 mmHg 81%

    5 March, Thursday

    Time Temperature Precipitation Wind Pressure Humidity
    00:00 +19°C° 0 mm 1 mps 664 mmHg 84%
    01:00 +19°C° 0 mm 1 mps 664 mmHg 86%
    02:00 +19°C° 0 mm 1 mps 664 mmHg 89%
    03:00 +18°C° 0 mm 1 mps 664 mmHg 91%
    04:00 +18°C° 0 mm 1 mps 663 mmHg 94%
    05:00 +19°C° 0 mm 1 mps 664 mmHg 93%
    06:00 +19°C° 0 mm 1 mps 665 mmHg 92%
    07:00 +18°C° 0 mm 0 mps 665 mmHg 91%
    08:00 +21°C° 0 mm 0 mps 666 mmHg 81%
    09:00 +26°C° 0 mm 1 mps 667 mmHg 71%
    10:00 +29°C° 0 mm 1 mps 668 mmHg 61%
    11:00 +29°C° 0 mm 1 mps 667 mmHg 57%
    12:00 +30°C° 0 mm 1 mps 666 mmHg 53%
    13:00 +31°C° 0 mm 1 mps 666 mmHg 49%
    14:00 +31°C° 0 mm 2 mps 665 mmHg 51%
    15:00 +30°C° 0 mm 2 mps 664 mmHg 52%
    16:00 +30°C° 0 mm 2 mps 664 mmHg 54%
    17:00 +27°C° 0 mm 2 mps 663 mmHg 59%
    18:00 +25°C° 0 mm 2 mps 663 mmHg 63%
    19:00 +21°C° 0 mm 2 mps 663 mmHg 68%
    20:00 +20°C° 0 mm 2 mps 663 mmHg 69%
    21:00 +20°C° 0 mm 1 mps 664 mmHg 71%
    22:00 +19°C° 0 mm 1 mps 664 mmHg 72%
    23:00 +18°C° 0 mm 1 mps 664 mmHg 74%
    Show more